小惑星2010 GW64

2010 GW64

English version
Home page
Updated on July 22, 2011

---------------------------------------------------------------------

・ プロフィール

発見日 2010年4月6日
発見光度 20等
発見者 Wide Field Infrared Survey Explorer (NASA)

・ 軌道要素

The following orbital elements are taken from MPO190721

Epoch 2011 Feb. 8.0 TT = JDT 2455600.5                  MPC
M   0.57728              (2000.0)            P               Q
n   0.00194968     Peri.  152.61043     -0.56862201     -0.04158820
a  63.4591836      Node   301.60170     +0.45897892     +0.81276505
e   0.9415721      Incl.  105.29428     +0.68264732     -0.58110532
P 506              H   14.9           G   0.15           U   0
From 36 observations at 2 oppositions, 2010-, mean residual 0".48.

・ 光度変化

        H = 14.7  G = 0.15

---------------------------------------------------------------------

軌道要素はMPCのEphemerides and Orbital Elementsに掲載されたものです。
光度グラフはComet for Windowsで作成したものです。

---------------------------------------------------------------------

Copyright(C) Seiichi Yoshida (comet@aerith.net). All rights reserved.